User: anonymous
Location: Sun City Center
(27.6996°N, 82.3528°W)
Time: 06:13:24
(UTC-04:00)
Language:

Cosmos 2084 Rocket - Orbit

View from above orbital plane
View from above orbital plane
View from above satellite
View from above satellite

Ground track
Ground track

The orbit data is extracted from the following two-line orbital elements,

1 20666U 90055D   14242.45547004  .00000404  00000-0  59361-4 0  2642
2 20666 062.7881 315.5157 0062486 356.2671 003.7947 14.89763827308812
Epoch (UTC): 30 August 2014 10:55:52
Eccentricity: 0.0062486
inclination: 62.7881°
perigee height: 555 km
apogee height: 642 km
right ascension of ascending node: 315.5157°
argument of perigee: 356.2671°
revolutions per day: 14.89763827
mean anomaly at epoch: 3.7947°
orbit number at epoch: 30881

The dashed part of the orbit path shows where the satellite is in the earth's shadow,  

DLR